| time (UTC) | temp F | wind direction | speed knots | gust knots | rain 1hr in | rain 24hr in | rain mn in | humidity % | barometer mb |
| 20260904040441 | 71 | 135 | 0.0 | 1.7 | 0.66 | 0.03 | 0.03 | 99 | 1012.5 |
| 20260904035937 | 70 | 87 | 0.9 | 3.5 | 0.57 | 0.41 | 0.41 | 99 | 1012.1 |
| 20260904035433 | 70 | 15 | 0.0 | 0.9 | 0.21 | 0.33 | 0.33 | 99 | 1012.7 |
| 20260904034932 | 71 | 118 | 1.7 | 1.7 | 0.26 | 0.32 | 0.32 | 99 | 1012.1 |
| 20260904034427 | 70 | 278 | 0.9 | 0.9 | 0.21 | 0.29 | 0.29 | 99 | 1012.4 |
| 20260904033923 | 70 | 336 | 0.0 | 1.7 | 0.19 | 0.27 | 0.27 | 99 | 1012.4 |
| 20260904033419 | 70 | 62 | 0.0 | 1.7 | 0.12 | 0.26 | 0.26 | 99 | 1012.2 |
| 20260904032915 | 70 | 50 | 0.0 | 0.0 | 0.07 | 0.24 | 0.24 | 99 | 1012.4 |
| 20260904032410 | 70 | 66 | 0.0 | 0.0 | 0.07 | 0.24 | 0.24 | 99 | 1012.2 |
| 20260904031904 | 70 | 62 | 0.0 | 0.9 | 0.02 | 0.22 | 0.22 | 99 | 1012.1 |
| 20260904031400 | 70 | 318 | 1.7 | 1.7 | 0.07 | 0.22 | 0.22 | 99 | 1012.1 |
| 20260904030856 | 70 | 352 | 0.0 | 0.0 | 0.12 | 0.22 | 0.22 | 99 | 1012.0 |
| 20260904030351 | 70 | 19 | 0.0 | 0.0 | 0.09 | 0.21 | 0.21 | 99 | 1012.2 |
| 20260904025847 | 70 | 359 | 1.7 | 1.7 | 0.09 | 0.20 | 0.20 | 99 | 1012.2 |
| 20260904025342 | 70 | 62 | 0.0 | 0.9 | 0.05 | 0.19 | 0.19 | 99 | 1012.2 |
| 20260904024842 | 70 | 15 | 0.9 | 1.7 | 0.00 | 0.18 | 0.18 | 99 | 1012.2 |
| 20260904024337 | 70 | 0 | 0.9 | 1.7 | 0.00 | 0.18 | 0.18 | 99 | 1012.0 |
| 20260904023834 | 70 | 30 | 0.9 | 1.7 | 0.00 | 0.18 | 0.18 | 99 | 1011.9 |
| 20260904023330 | 70 | 44 | 0.9 | 1.7 | 0.00 | 0.18 | 0.18 | 99 | 1011.9 |
| 20260904022828 | 70 | 15 | 1.7 | 1.7 | 0.00 | 0.18 | 0.18 | 99 | 1012.0 |
| 20260904022326 | 70 | 89 | 0.0 | 0.0 | 0.00 | 0.18 | 0.18 | 99 | 1012.2 |
| 20260904021822 | 70 | 15 | 0.0 | 0.0 | 0.00 | 0.18 | 0.18 | 99 | 1012.1 |
| 20260904021322 | 71 | 346 | 0.0 | 0.9 | 0.00 | 0.18 | 0.18 | 99 | 1012.3 |
| 20260904020817 | 71 | 309 | 0.0 | 0.9 | 0.00 | 0.18 | 0.18 | 99 | 1012.5 |
| 20260904020312 | 70 | 311 | 1.7 | 1.7 | 0.00 | 0.18 | 0.18 | 99 | 1012.7 |
| 20260904015810 | 71 | 7 | 0.9 | 0.9 | 0.00 | 0.18 | 0.18 | 99 | 1012.6 |
| 20260904015307 | 70 | 89 | 0.0 | 0.0 | 0.00 | 0.18 | 0.18 | 99 | 1012.6 |
| 20260904014805 | 71 | 89 | 0.0 | 0.0 | 0.00 | 0.18 | 0.18 | 99 | 1012.5 |
| 20260904014300 | 71 | 321 | 0.0 | 0.0 | 0.00 | 0.18 | 0.18 | 99 | 1012.7 |
| 20260904013756 | 70 | 282 | 0.0 | 0.9 | 0.00 | 0.18 | 0.18 | 99 | 1012.5 |
| 20260904013252 | 70 | 26 | 0.9 | 1.7 | 0.00 | 0.18 | 0.18 | 99 | 1012.7 |
| 20260904012747 | 70 | 89 | 1.7 | 1.7 | 0.00 | 0.18 | 0.18 | 99 | 1012.6 |
| 20260904012247 | 71 | 43 | 0.0 | 0.9 | 0.00 | 0.18 | 0.18 | 99 | 1012.6 |
| 20260904011746 | 71 | 28 | 0.9 | 0.9 | 0.00 | 0.18 | 0.18 | 99 | 1012.6 |
| 20260904011241 | 71 | 80 | 0.9 | 0.9 | 0.00 | 0.18 | 0.18 | 99 | 1012.7 |
| 20260904010736 | 71 | 49 | 0.0 | 0.0 | 0.00 | 0.18 | 0.18 | 99 | 1012.9 |
| 20260904010233 | 71 | 129 | 0.0 | 0.0 | 0.00 | 0.18 | 0.18 | 99 | 1012.7 |
| 20260904005727 | 71 | 44 | 0.0 | 0.0 | 0.00 | 0.18 | 0.18 | 99 | 1012.8 |
| 20260904005223 | 71 | 44 | 0.0 | 1.7 | 0.00 | 0.18 | 0.18 | 99 | 1012.6 |
| 20260904004718 | 71 | 34 | 0.9 | 1.7 | 0.00 | 0.18 | 0.18 | 99 | 1012.7 |
| 20260904004214 | 71 | 34 | 0.9 | 0.9 | 0.00 | 0.18 | 0.18 | 99 | 1012.5 |
| 20260904003708 | 71 | 72 | 0.9 | 1.7 | 0.00 | 0.18 | 0.18 | 99 | 1012.6 |
| 20260904003205 | 71 | 50 | 0.0 | 0.0 | 0.00 | 0.18 | 0.18 | 99 | 1012.5 |
| 20260904002700 | 72 | 50 | 0.0 | 0.0 | 0.00 | 0.18 | 0.18 | 99 | 1012.5 |
| 20260904002155 | 72 | 297 | 0.0 | 0.0 | 0.00 | 0.18 | 0.18 | 99 | 1012.2 |
| 20260904001645 | 72 | 22 | 0.0 | 0.9 | 0.00 | 0.18 | 0.18 | 99 | 1012.4 |
| 20260904001144 | 72 | 50 | 0.0 | 0.9 | 0.00 | 0.18 | 0.18 | 99 | 1012.3 |
| 20260904000639 | 72 | 59 | 0.9 | 0.9 | 0.00 | 0.18 | 0.18 | 99 | 1012.5 |
| 20260904000135 | 72 | 315 | 0.0 | 0.0 | 0.00 | 0.18 | 0.18 | 99 | 1012.3 |
| 20260903235634 | 72 | 315 | 0.0 | 1.7 | 0.00 | 0.18 | 0.18 | 99 | 1012.4 |
| 20260903235130 | 73 | 322 | 0.9 | 1.7 | 0.00 | 0.18 | 0.18 | 99 | 1012.2 |
| 20260903234625 | 73 | 37 | 0.0 | 0.0 | 0.00 | 0.18 | 0.18 | 99 | 1012.2 |
| 20260903234121 | 73 | 37 | 0.0 | 0.0 | 0.00 | 0.18 | 0.18 | 99 | 1012.3 |
| 20260903233617 | 73 | 6 | 0.0 | 0.0 | 0.00 | 0.18 | 0.18 | 99 | 1012.5 |
| 20260903233113 | 73 | 50 | 0.0 | 0.0 | 0.00 | 0.18 | 0.18 | 98 | 1012.5 |
| 20260903232607 | 74 | 50 | 0.0 | 0.0 | 0.00 | 0.18 | 0.18 | 98 | 1012.6 |
| 20260903232103 | 74 | 309 | 0.0 | 0.9 | 0.00 | 0.18 | 0.18 | 98 | 1012.6 |
| 20260903231556 | 74 | 299 | 0.0 | 0.9 | 0.00 | 0.18 | 0.18 | 98 | 1012.5 |
| 20260903231051 | 75 | 343 | 0.0 | 0.9 | 0.00 | 0.18 | 0.18 | 98 | 1012.6 |
| 20260903230548 | 75 | 321 | 0.0 | 0.0 | 0.00 | 0.18 | 0.18 | 98 | 1012.5 |
| 20260903230045 | 75 | 322 | 0.0 | 1.7 | 0.00 | 0.18 | 0.18 | 98 | 1012.5 |
| 20260903225537 | 75 | 322 | 0.9 | 0.9 | 0.00 | 0.18 | 0.18 | 98 | 1012.3 |
| 20260903225033 | 75 | 315 | 0.9 | 1.7 | 0.00 | 0.18 | 0.18 | 97 | 1012.3 |
| 20260903224530 | 75 | 315 | 0.0 | 0.0 | 0.00 | 0.18 | 0.18 | 97 | 1012.2 |
| 20260903224025 | 75 | 300 | 0.0 | 0.9 | 0.00 | 0.18 | 0.18 | 97 | 1012.1 |
| 20260903223524 | 76 | 309 | 0.0 | 0.0 | 0.00 | 0.18 | 0.18 | 96 | 1012.1 |
| 20260903223024 | 76 | 303 | 0.9 | 1.7 | 0.00 | 0.18 | 0.18 | 95 | 1012.0 |
| 20260903222520 | 76 | 308 | 0.9 | 1.7 | 0.00 | 0.18 | 0.18 | 95 | 1012.0 |
| 20260903222018 | 76 | 295 | 1.7 | 1.7 | 0.00 | 0.18 | 0.18 | 94 | 1012.3 |
| 20260903221514 | 76 | 295 | 0.9 | 1.7 | 0.00 | 0.18 | 0.18 | 94 | 1011.9 |
| 20260903221011 | 77 | 302 | 1.7 | 1.7 | 0.00 | 0.18 | 0.18 | 93 | 1011.8 |
| 20260903220510 | 77 | 287 | 1.7 | 2.6 | 0.00 | 0.18 | 0.18 | 93 | 1011.7 |
| 20260903220010 | 77 | 315 | 0.9 | 1.7 | 0.00 | 0.18 | 0.18 | 93 | 1011.6 |
| 20260903215505 | 78 | 295 | 1.7 | 1.7 | 0.00 | 0.18 | 0.18 | 92 | 1011.7 |
| 20260903215003 | 78 | 304 | 1.7 | 2.6 | 0.00 | 0.18 | 0.18 | 91 | 1011.7 |
| 20260903214459 | 80 | 293 | 0.9 | 0.9 | 0.00 | 0.18 | 0.18 | 86 | 1011.8 |
| 20260903213958 | 81 | 320 | 0.9 | 0.9 | 0.00 | 0.18 | 0.18 | 85 | 1011.8 |
| 20260903213454 | 80 | 25 | 0.0 | 0.9 | 0.00 | 0.18 | 0.18 | 80 | 1011.7 |
| 20260903212950 | 81 | 296 | 0.0 | 0.9 | 0.00 | 0.18 | 0.18 | 80 | 1011.9 |
| 20260903212445 | 81 | 340 | 0.9 | 1.7 | 0.00 | 0.18 | 0.18 | 78 | 1011.9 |
| 20260903211940 | 80 | 343 | 0.9 | 3.5 | 0.00 | 0.18 | 0.18 | 82 | 1012.0 |
| 20260903211435 | 82 | 349 | 0.9 | 2.6 | 0.00 | 0.18 | 0.18 | 78 | 1011.7 |
| 20260903210932 | 83 | 255 | 1.7 | 1.7 | 0.00 | 0.18 | 0.18 | 77 | 1011.9 |
| 20260903210431 | 83 | 314 | 1.7 | 1.7 | 0.00 | 0.18 | 0.18 | 79 | 1012.1 |
| 20260903205927 | 83 | 296 | 0.9 | 1.7 | 0.00 | 0.18 | 0.18 | 79 | 1012.0 |
| 20260903205426 | 83 | 350 | 0.0 | 1.7 | 0.00 | 0.18 | 0.18 | 77 | 1012.2 |
| 20260903204920 | 83 | 170 | 1.7 | 1.7 | 0.00 | 0.18 | 0.18 | 74 | 1012.2 |
| 20260903204417 | 83 | 0 | 0.9 | 2.6 | 0.00 | 0.18 | 0.18 | 74 | 1012.2 |
| 20260903203913 | 84 | 236 | 0.0 | 3.5 | 0.00 | 0.18 | 0.18 | 72 | 1012.2 |
| 20260903203408 | 84 | 330 | 1.7 | 2.6 | 0.00 | 0.18 | 0.18 | 76 | 1012.2 |
| 20260903202907 | 82 | 343 | 0.0 | 1.7 | 0.00 | 0.18 | 0.18 | 77 | 1012.3 |
| 20260903202404 | 82 | 282 | 2.6 | 3.5 | 0.00 | 0.18 | 0.18 | 77 | 1012.4 |
| 20260903201903 | 82 | 313 | 1.7 | 5.2 | 0.00 | 0.18 | 0.18 | 76 | 1012.2 |
| 20260903201359 | 83 | 284 | 7.8 | 9.6 | 0.00 | 0.18 | 0.18 | 75 | 1012.5 |
| 20260903200858 | 83 | 214 | 5.2 | 5.2 | 0.00 | 0.18 | 0.18 | 73 | 1012.5 |
| 20260903200353 | 83 | 224 | 4.3 | 5.2 | 0.00 | 0.18 | 0.18 | 72 | 1012.4 |
| 20260903195848 | 84 | 235 | 1.7 | 3.5 | 0.00 | 0.18 | 0.18 | 74 | 1012.5 |
| 20260903195344 | 83 | 272 | 1.7 | 4.3 | 0.00 | 0.18 | 0.18 | 72 | 1012.5 |
| 20260903194838 | 82 | 325 | 1.7 | 3.5 | 0.00 | 0.18 | 0.18 | 77 | 1012.4 |
| 20260903194334 | 83 | 32 | 0.0 | 1.7 | 0.00 | 0.18 | 0.18 | 75 | 1012.2 |
| 20260903193830 | 82 | 211 | 2.6 | 4.3 | 0.00 | 0.18 | 0.18 | 74 | 1012.5 |
| 20260903193326 | 83 | 336 | 1.7 | 4.3 | 0.00 | 0.18 | 0.18 | 75 | 1012.0 |
| 20260903192821 | 82 | 143 | 1.7 | 1.7 | 0.00 | 0.18 | 0.18 | 76 | 1012.5 |
| 20260903192316 | 82 | 254 | 3.5 | 7.0 | 0.00 | 0.18 | 0.18 | 74 | 1012.5 |
| 20260903191813 | 82 | 56 | 0.0 | 1.7 | 0.00 | 0.18 | 0.18 | 78 | 1012.6 |
| 20260903191308 | 81 | 247 | 3.5 | 6.1 | 0.00 | 0.18 | 0.18 | 78 | 1012.7 |
| 20260903190807 | 82 | 252 | 2.6 | 3.5 | 0.00 | 0.18 | 0.18 | 75 | 1012.6 |
| 20260903190303 | 83 | 248 | 1.7 | 3.5 | 0.00 | 0.18 | 0.18 | 75 | 1012.6 |
| 20260903185757 | 81 | 271 | 2.6 | 7.0 | 0.00 | 0.18 | 0.18 | 77 | 1012.9 |
| 20260903185256 | 80 | 236 | 1.7 | 1.7 | 0.00 | 0.18 | 0.18 | 78 | 1012.8 |
| 20260903184753 | 80 | 333 | 0.0 | 2.6 | 0.00 | 0.18 | 0.18 | 81 | 1013.2 |
| 20260903184249 | 79 | 19 | 0.9 | 0.9 | 0.00 | 0.18 | 0.18 | 82 | 1012.9 |
| 20260903183744 | 79 | 339 | 0.0 | 1.7 | 0.00 | 0.18 | 0.18 | 84 | 1012.9 |
| 20260903183238 | 79 | 323 | 1.7 | 3.5 | 0.00 | 0.18 | 0.18 | 80 | 1012.8 |
| 20260903182737 | 80 | 8 | 1.7 | 1.7 | 0.00 | 0.18 | 0.18 | 81 | 1012.9 |
| 20260903182232 | 80 | 272 | 2.6 | 4.3 | 0.00 | 0.18 | 0.18 | 78 | 1013.3 |
| 20260903181731 | 80 | 257 | 1.7 | 2.6 | 0.00 | 0.18 | 0.18 | 80 | 1013.3 |
| 20260903181226 | 80 | 154 | 0.0 | 3.5 | 0.00 | 0.18 | 0.18 | 79 | 1013.2 |
| 20260903180722 | 80 | 215 | 3.5 | 5.2 | 0.00 | 0.18 | 0.18 | 79 | 1013.0 |
| 20260903180221 | 81 | 21 | 0.0 | 2.6 | 0.00 | 0.18 | 0.18 | 79 | 1013.1 |
| 20260903175721 | 81 | 216 | 0.9 | 2.6 | 0.00 | 0.18 | 0.18 | 79 | 1013.3 |
| 20260903175214 | 80 | 341 | 0.9 | 4.3 | 0.00 | 0.18 | 0.18 | 79 | 1013.4 |
| 20260903174714 | 80 | 264 | 2.6 | 5.2 | 0.00 | 0.18 | 0.18 | 80 | 1013.3 |
| 20260903174209 | 81 | 298 | 0.0 | 1.7 | 0.00 | 0.18 | 0.18 | 78 | 1013.0 |
| 20260903173709 | 80 | 277 | 2.6 | 3.5 | 0.00 | 0.18 | 0.18 | 78 | 1013.3 |
| 20260903173206 | 79 | 99 | 0.0 | 1.7 | 0.00 | 0.18 | 0.18 | 80 | 1013.3 |
| 20260903172701 | 79 | 351 | 1.7 | 5.2 | 0.00 | 0.18 | 0.18 | 80 | 1013.5 |
| 20260903172156 | 79 | 359 | 0.9 | 2.6 | 0.00 | 0.18 | 0.18 | 80 | 1013.3 |
| 20260903171655 | 79 | 336 | 1.7 | 3.5 | 0.00 | 0.18 | 0.18 | 79 | 1013.6 |
| 20260903171147 | 80 | 347 | 0.9 | 2.6 | 0.00 | 0.18 | 0.18 | 80 | 1013.3 |
| 20260903170645 | 81 | 257 | 5.2 | 7.0 | 0.00 | 0.18 | 0.18 | 76 | 1013.4 |
| 20260903170141 | 81 | 317 | 1.7 | 2.6 | 0.00 | 0.18 | 0.18 | 82 | 1013.3 |
| 20260903165638 | 81 | 168 | 0.0 | 0.9 | 0.00 | 0.18 | 0.18 | 77 | 1013.5 |
| 20260903165133 | 80 | 338 | 1.7 | 6.1 | 0.00 | 0.18 | 0.18 | 79 | 1013.4 |
| 20260903164627 | 80 | 266 | 3.5 | 4.3 | 0.00 | 0.18 | 0.18 | 79 | 1013.6 |
| 20260903164124 | 79 | 320 | 2.6 | 2.6 | 0.00 | 0.18 | 0.18 | 81 | 1013.6 |
| 20260903163619 | 79 | 87 | 1.7 | 5.2 | 0.00 | 0.18 | 0.18 | 82 | 1013.6 |
| 20260903163115 | 81 | 246 | 1.7 | 2.6 | 0.00 | 0.18 | 0.18 | 79 | 1013.7 |
| 20260903162611 | 79 | 83 | 1.7 | 2.6 | 0.00 | 0.18 | 0.18 | 84 | 1013.6 |
| 20260903162107 | 79 | 349 | 3.5 | 3.5 | 0.00 | 0.18 | 0.18 | 83 | 1013.7 |
| 20260903161602 | 78 | 27 | 1.7 | 2.6 | 0.00 | 0.18 | 0.18 | 84 | 1013.7 |
| 20260903161057 | 77 | 245 | 0.9 | 3.5 | 0.00 | 0.18 | 0.18 | 84 | 1014.0 |
| 20260903160556 | 78 | 156 | 0.0 | 1.7 | 0.00 | 0.18 | 0.18 | 84 | 1013.9 |
| 20260903160051 | 77 | 253 | 3.5 | 5.2 | 0.00 | 0.18 | 0.18 | 85 | 1013.8 |
| 20260903155550 | 77 | 343 | 0.0 | 1.7 | 0.00 | 0.18 | 0.18 | 87 | 1013.9 |
| 20260903155046 | 76 | 2 | 0.0 | 3.5 | 0.00 | 0.18 | 0.18 | 86 | 1014.2 |
| 20260903154542 | 75 | 2 | 1.7 | 2.6 | 0.00 | 0.18 | 0.18 | 89 | 1014.3 |
| 20260903154038 | 76 | 48 | 0.9 | 1.7 | 0.00 | 0.18 | 0.18 | 88 | 1014.2 |
| 20260903153533 | 76 | 4 | 1.7 | 2.6 | 0.00 | 0.18 | 0.18 | 90 | 1014.5 |
| 20260903153029 | 76 | 264 | 0.0 | 1.7 | 0.00 | 0.18 | 0.18 | 88 | 1014.4 |
| 20260903152525 | 75 | 289 | 0.9 | 1.7 | 0.00 | 0.18 | 0.18 | 89 | 1014.5 |
| 20260903152021 | 74 | 240 | 0.9 | 2.6 | 0.00 | 0.18 | 0.18 | 89 | 1014.5 |
| 20260903151519 | 74 | 228 | 2.6 | 4.3 | 0.00 | 0.18 | 0.18 | 88 | 1014.5 |
| 20260903151014 | 74 | 25 | 0.0 | 2.6 | 0.00 | 0.18 | 0.18 | 91 | 1014.3 |
| 20260903150509 | 73 | 285 | 1.7 | 4.3 | 0.00 | 0.18 | 0.18 | 91 | 1014.5 |
| 20260903150004 | 73 | 201 | 0.9 | 1.7 | 0.00 | 0.18 | 0.18 | 91 | 1014.6 |
| 20260903145459 | 72 | 6 | 0.0 | 2.6 | 0.00 | 0.18 | 0.18 | 92 | 1014.5 |
| 20260903144954 | 72 | 140 | 0.9 | 1.7 | 0.00 | 0.18 | 0.18 | 93 | 1014.3 |
| 20260903144453 | 72 | 210 | 1.7 | 3.5 | 0.00 | 0.18 | 0.18 | 92 | 1014.4 |
| 20260903143949 | 72 | 220 | 3.5 | 3.5 | 0.00 | 0.18 | 0.18 | 92 | 1014.5 |
| 20260903143446 | 73 | 185 | 0.9 | 2.6 | 0.00 | 0.18 | 0.18 | 93 | 1014.4 |
| 20260903142941 | 72 | 290 | 0.0 | 2.6 | 0.00 | 0.18 | 0.18 | 93 | 1014.5 |
| 20260903142436 | 72 | 219 | 0.0 | 1.7 | 0.00 | 0.18 | 0.18 | 93 | 1014.4 |
| 20260903141932 | 72 | 185 | 0.9 | 2.6 | 0.00 | 0.18 | 0.18 | 94 | 1014.3 |
| 20260903141428 | 71 | 110 | 0.9 | 2.6 | 0.00 | 0.18 | 0.18 | 94 | 1014.5 |
| 20260903140924 | 71 | 269 | 3.5 | 5.2 | 0.00 | 0.18 | 0.18 | 94 | 1014.5 |
| 20260903140419 | 71 | 235 | 1.7 | 1.7 | 0.00 | 0.18 | 0.18 | 94 | 1014.2 |
| 20260903135914 | 71 | 171 | 0.0 | 1.7 | 0.00 | 0.18 | 0.18 | 95 | 1014.4 |
| 20260903135410 | 71 | 301 | 0.0 | 2.6 | 0.00 | 0.18 | 0.18 | 95 | 1014.5 |
| 20260903134908 | 71 | 144 | 1.7 | 1.7 | 0.00 | 0.18 | 0.18 | 96 | 1014.4 |
| 20260903134403 | 71 | 156 | 0.0 | 1.7 | 0.00 | 0.18 | 0.18 | 95 | 1014.4 |
| 20260903133901 | 72 | 263 | 0.9 | 2.6 | 0.00 | 0.18 | 0.18 | 94 | 1014.2 |
| 20260903133357 | 72 | 251 | 1.7 | 5.2 | 0.00 | 0.18 | 0.18 | 94 | 1014.2 |
| 20260903132857 | 72 | 223 | 4.3 | 4.3 | 0.00 | 0.18 | 0.18 | 95 | 1014.2 |
| 20260903132353 | 72 | 215 | 0.0 | 0.0 | 0.00 | 0.18 | 0.18 | 96 | 1014.2 |
| 20260903131852 | 71 | 238 | 1.7 | 3.5 | 0.00 | 0.18 | 0.18 | 95 | 1014.0 |
| 20260903131347 | 71 | 194 | 0.9 | 1.7 | 0.00 | 0.18 | 0.18 | 99 | 1014.2 |
| 20260903130846 | 71 | 138 | 0.0 | 1.7 | 0.00 | 0.18 | 0.18 | 99 | 1014.4 |
| 20260903130341 | 70 | 172 | 0.9 | 1.7 | 0.00 | 0.18 | 0.18 | 99 | 1014.3 |
| 20260903125839 | 69 | 157 | 1.7 | 1.7 | 0.00 | 0.18 | 0.18 | 99 | 1014.4 |
| 20260903125335 | 69 | 220 | 0.0 | 1.7 | 0.00 | 0.18 | 0.18 | 99 | 1014.4 |
| 20260903124834 | 69 | 156 | 0.0 | 1.7 | 0.00 | 0.18 | 0.18 | 99 | 1014.5 |
| 20260903124330 | 68 | 165 | 0.9 | 1.7 | 0.00 | 0.18 | 0.18 | 99 | 1014.2 |
| 20260903123828 | 67 | 181 | 0.9 | 0.9 | 0.00 | 0.18 | 0.18 | 99 | 1014.6 |
| 20260903123323 | 68 | 230 | 0.0 | 1.7 | 0.00 | 0.18 | 0.18 | 99 | 1014.9 |
| 20260903122821 | 68 | 230 | 0.0 | 0.9 | 0.00 | 0.18 | 0.18 | 99 | 1014.5 |
| 20260903122317 | 67 | 304 | 0.0 | 0.9 | 0.00 | 0.18 | 0.18 | 99 | 1014.5 |
| 20260903121814 | 67 | 269 | 0.0 | 0.0 | 0.00 | 0.18 | 0.18 | 99 | 1014.4 |
| 20260903121311 | 67 | 299 | 0.0 | 0.0 | 0.00 | 0.18 | 0.18 | 99 | 1014.4 |
| 20260903120806 | 67 | 269 | 0.0 | 0.0 | 0.00 | 0.18 | 0.18 | 99 | 1014.1 |
| 20260903120300 | 67 | 293 | 0.0 | 0.9 | 0.00 | 0.18 | 0.18 | 99 | 1014.1 |
| 20260903115758 | 67 | 89 | 0.0 | 0.0 | 0.00 | 0.18 | 0.18 | 99 | 1014.1 |
| 20260903115254 | 67 | 89 | 0.0 | 0.9 | 0.00 | 0.18 | 0.18 | 99 | 1014.1 |
| 20260903114748 | 66 | 269 | 0.0 | 0.9 | 0.00 | 0.18 | 0.18 | 99 | 1014.1 |
| 20260903114244 | 66 | 313 | 0.0 | 0.9 | 0.00 | 0.18 | 0.18 | 99 | 1014.2 |
| 20260903113739 | 65 | 89 | 0.0 | 0.9 | 0.00 | 0.18 | 0.18 | 99 | 1014.1 |
| 20260903113235 | 64 | 199 | 0.0 | 0.9 | 0.00 | 0.18 | 0.18 | 99 | 1014.2 |
| 20260903112731 | 64 | 283 | 0.0 | 0.9 | 0.00 | 0.18 | 0.18 | 99 | 1014.1 |
| 20260903112226 | 64 | 319 | 0.9 | 1.7 | 0.00 | 0.18 | 0.18 | 99 | 1013.9 |
| 20260903111725 | 64 | 330 | 1.7 | 1.7 | 0.00 | 0.18 | 0.18 | 99 | 1013.8 |
| 20260903111220 | 64 | 294 | 0.0 | 0.9 | 0.00 | 0.18 | 0.18 | 99 | 1013.9 |
| 20260903110716 | 64 | 330 | 0.0 | 0.9 | 0.00 | 0.18 | 0.18 | 99 | 1013.8 |
| 20260903110212 | 64 | 280 | 0.0 | 0.9 | 0.00 | 0.18 | 0.18 | 99 | 1013.6 |
| 20260903105711 | 64 | 269 | 0.0 | 0.9 | 0.00 | 0.18 | 0.18 | 99 | 1013.7 |
| 20260903105207 | 64 | 283 | 0.0 | 0.9 | 0.00 | 0.18 | 0.18 | 99 | 1013.6 |
| 20260903104706 | 64 | 302 | 0.9 | 0.9 | 0.00 | 0.18 | 0.18 | 99 | 1013.9 |
| 20260903104202 | 64 | 309 | 0.0 | 1.7 | 0.00 | 0.18 | 0.18 | 99 | 1013.8 |
| 20260903103657 | 64 | 321 | 0.9 | 1.7 | 0.00 | 0.18 | 0.18 | 99 | 1013.9 |
| 20260903103154 | 64 | 300 | 0.9 | 1.7 | 0.00 | 0.18 | 0.18 | 99 | 1013.9 |
| 20260903102653 | 64 | 29 | 0.0 | 1.7 | 0.00 | 0.18 | 0.18 | 99 | 1013.6 |
| 20260903102148 | 64 | 332 | 1.7 | 1.7 | 0.00 | 0.18 | 0.18 | 99 | 1013.9 |
| 20260903101647 | 64 | 322 | 0.0 | 0.9 | 0.00 | 0.18 | 0.18 | 99 | 1013.7 |
| 20260903101143 | 65 | 294 | 0.9 | 0.9 | 0.00 | 0.18 | 0.18 | 99 | 1013.9 |
| 20260903100638 | 65 | 335 | 0.9 | 1.7 | 0.00 | 0.18 | 0.18 | 99 | 1013.9 |
| 20260903100137 | 65 | 299 | 0.0 | 0.9 | 0.00 | 0.18 | 0.18 | 99 | 1013.9 |
| 20260903095634 | 65 | 352 | 0.0 | 1.7 | 0.00 | 0.18 | 0.18 | 99 | 1013.9 |
| 20260903095129 | 65 | 335 | 0.9 | 1.7 | 0.00 | 0.18 | 0.18 | 99 | 1013.8 |
| 20260903094624 | 65 | 301 | 0.0 | 0.0 | 0.00 | 0.18 | 0.18 | 99 | 1014.2 |
| 20260903094119 | 65 | 309 | 0.0 | 1.7 | 0.00 | 0.18 | 0.18 | 99 | 1014.0 |
| 20260903093614 | 65 | 287 | 1.7 | 1.7 | 0.02 | 0.18 | 0.18 | 99 | 1013.8 |
| 20260903093110 | 65 | 239 | 1.7 | 1.7 | 0.00 | 0.18 | 0.18 | 99 | 1014.1 |
| 20260903092609 | 65 | 299 | 0.0 | 0.9 | 0.00 | 0.18 | 0.18 | 99 | 1014.2 |
| 20260903092104 | 65 | 329 | 0.9 | 1.7 | 0.00 | 0.18 | 0.18 | 99 | 1014.4 |
| 20260903091602 | 65 | 38 | 0.0 | 0.9 | 0.33 | 0.18 | 0.18 | 99 | 1014.0 |
| 20260903091057 | 65 | 82 | 0.0 | 1.7 | 0.40 | 0.18 | 0.18 | 99 | 1014.2 |
| 20260903090553 | 65 | 248 | 1.7 | 1.7 | 0.02 | 0.12 | 0.12 | 99 | 1014.4 |
| 20260903090051 | 65 | 45 | 0.9 | 1.7 | 0.00 | 0.11 | 0.11 | 99 | 1014.3 |
| 20260903085550 | 65 | 287 | 0.0 | 1.7 | 0.00 | 0.11 | 0.11 | 99 | 1014.0 |
| 20260903085046 | 65 | 250 | 1.7 | 1.7 | 0.00 | 0.11 | 0.11 | 99 | 1014.0 |
| 20260903084544 | 65 | 287 | 1.7 | 1.7 | 0.00 | 0.11 | 0.11 | 99 | 1013.9 |
| 20260903084039 | 65 | 318 | 1.7 | 2.6 | 0.00 | 0.11 | 0.11 | 99 | 1013.9 |
| 20260903083535 | 65 | 301 | 1.7 | 1.7 | 0.00 | 0.11 | 0.11 | 99 | 1013.8 |
| 20260903083034 | 65 | 348 | 1.7 | 1.7 | 0.00 | 0.11 | 0.11 | 99 | 1013.5 |
| 20260903082528 | 65 | 352 | 0.0 | 0.0 | 0.00 | 0.11 | 0.11 | 99 | 1013.9 |
| 20260903082024 | 65 | 64 | 0.0 | 0.9 | 0.00 | 0.11 | 0.11 | 99 | 1014.2 |
| 20260903081519 | 65 | 351 | 0.0 | 1.7 | 0.00 | 0.11 | 0.11 | 99 | 1014.2 |
| 20260903081015 | 65 | 147 | 0.0 | 0.9 | 0.00 | 0.11 | 0.11 | 99 | 1014.0 |
| 20260903080511 | 65 | 345 | 0.0 | 0.0 | 0.00 | 0.11 | 0.11 | 99 | 1014.0 |
| 20260903080008 | 65 | 309 | 0.0 | 1.7 | 0.00 | 0.11 | 0.11 | 99 | 1013.9 |
| 20260903075502 | 65 | 188 | 0.0 | 0.0 | 0.00 | 0.11 | 0.11 | 99 | 1013.9 |
| 20260903074957 | 65 | 157 | 0.0 | 0.9 | 0.00 | 0.11 | 0.11 | 99 | 1013.8 |
| 20260903074456 | 65 | 0 | 0.0 | 0.9 | 0.00 | 0.11 | 0.11 | 99 | 1014.3 |
| 20260903073952 | 65 | 283 | 0.0 | 1.7 | 0.00 | 0.11 | 0.11 | 99 | 1014.1 |
| 20260903073447 | 65 | 230 | 0.9 | 1.7 | 0.00 | 0.11 | 0.11 | 99 | 1014.2 |
| 20260903072942 | 65 | 293 | 0.0 | 0.0 | 0.00 | 0.11 | 0.11 | 99 | 1014.3 |
| 20260903072438 | 65 | 66 | 0.0 | 0.9 | 0.00 | 0.11 | 0.11 | 99 | 1014.2 |
| 20260903071935 | 65 | 68 | 0.0 | 0.9 | 0.00 | 0.11 | 0.11 | 99 | 1014.1 |
| 20260903071431 | 65 | 16 | 0.9 | 1.7 | 0.00 | 0.11 | 0.11 | 99 | 1013.9 |
| 20260903070926 | 65 | 58 | 0.9 | 1.7 | 0.00 | 0.11 | 0.11 | 99 | 1014.0 |
| 20260903070425 | 65 | 18 | 1.7 | 1.7 | 0.00 | 0.11 | 0.11 | 99 | 1013.9 |
| 20260903065920 | 65 | 14 | 0.9 | 1.7 | 0.00 | 0.11 | 0.11 | 99 | 1014.0 |
| 20260903065415 | 65 | 61 | 0.9 | 1.7 | 0.00 | 0.11 | 0.11 | 99 | 1013.8 |
| 20260903064914 | 65 | 117 | 1.7 | 2.6 | 0.00 | 0.11 | 0.11 | 99 | 1014.3 |
| 20260903064410 | 65 | 269 | 0.0 | 1.7 | 0.00 | 0.11 | 0.11 | 99 | 1014.4 |
| 20260903063906 | 65 | 50 | 0.0 | 0.9 | 0.00 | 0.11 | 0.11 | 99 | 1014.0 |
| 20260903063401 | 65 | 37 | 0.0 | 1.7 | 0.00 | 0.11 | 0.11 | 99 | 1014.0 |
| 20260903062856 | 65 | 17 | 1.7 | 1.7 | 0.00 | 0.11 | 0.11 | 99 | 1014.2 |
| 20260903062355 | 65 | 328 | 1.7 | 2.6 | 0.00 | 0.11 | 0.11 | 99 | 1014.3 |
| 20260903061852 | 65 | 322 | 0.9 | 1.7 | 0.00 | 0.11 | 0.11 | 99 | 1014.2 |
| 20260903061351 | 65 | 288 | 1.7 | 1.7 | 0.00 | 0.11 | 0.11 | 99 | 1014.4 |
| 20260903060847 | 65 | 29 | 0.0 | 1.7 | 0.00 | 0.11 | 0.11 | 99 | 1014.5 |
| 20260903060346 | 65 | 19 | 1.7 | 1.7 | 0.00 | 0.11 | 0.11 | 99 | 1014.9 |
| 20260903055844 | 65 | 23 | 0.9 | 1.7 | 0.00 | 0.11 | 0.11 | 99 | 1015.1 |
| 20260903055342 | 65 | 66 | 0.0 | 0.9 | 0.00 | 0.11 | 0.11 | 99 | 1014.9 |
| 20260903054838 | 65 | 355 | 0.9 | 1.7 | 0.00 | 0.11 | 0.11 | 99 | 1014.7 |
| 20260903054338 | 65 | 24 | 1.7 | 1.7 | 0.00 | 0.11 | 0.11 | 99 | 1014.2 |
| 20260903053834 | 65 | 86 | 0.9 | 1.7 | 0.00 | 0.11 | 0.11 | 99 | 1014.3 |
| 20260903053329 | 65 | 333 | 0.0 | 1.7 | 0.00 | 0.11 | 0.11 | 99 | 1014.4 |
| 20260903052825 | 65 | 89 | 0.0 | 1.7 | 0.00 | 0.11 | 0.11 | 99 | 1014.4 |
| 20260903052320 | 65 | 89 | 0.0 | 1.7 | 0.00 | 0.11 | 0.11 | 99 | 1014.3 |
| 20260903051816 | 65 | 269 | 0.0 | 0.9 | 0.00 | 0.11 | 0.11 | 99 | 1014.4 |
| 20260903051311 | 65 | 92 | 2.6 | 3.5 | 0.00 | 0.11 | 0.11 | 99 | 1014.4 |
| 20260903050807 | 66 | 275 | 0.9 | 1.7 | 0.00 | 0.11 | 0.11 | 99 | 1014.6 |
| 20260903050306 | 66 | 309 | 3.5 | 3.5 | 0.00 | 0.11 | 0.11 | 99 | 1014.7 |
| 20260903045800 | 66 | 346 | 1.7 | 1.7 | 0.02 | 0.11 | 0.11 | 99 | 1014.5 |
| 20260903045256 | 66 | 184 | 1.7 | 5.2 | 0.05 | 0.11 | 0.11 | 99 | 1014.7 |
| 20260903044753 | 66 | 269 | 0.0 | 2.6 | 0.05 | 0.11 | 0.11 | 99 | 1014.9 |
| 20260903044247 | 66 | 136 | 3.5 | 5.2 | 0.12 | 0.11 | 0.11 | 99 | 1014.6 |
| 20260903043744 | 66 | 285 | 4.3 | 7.8 | 0.14 | 0.10 | 0.10 | 99 | 1014.5 |
| 20260903043244 | 66 | 94 | 0.0 | 1.7 | 0.12 | 0.09 | 0.09 | 99 | 1015.0 |
| 20260903042743 | 66 | 245 | 0.0 | 4.3 | 0.12 | 0.07 | 0.07 | 99 | 1015.6 |
| 20260903042238 | 66 | 281 | 1.7 | 4.3 | 0.19 | 0.06 | 0.06 | 99 | 1015.7 |
| 20260903041734 | 66 | 172 | 0.9 | 3.5 | 0.21 | 0.05 | 0.05 | 99 | 1016.2 |
| 20260903041230 | 66 | 328 | 0.0 | 2.6 | 0.19 | 0.03 | 0.03 | 99 | 1016.3 |
| 20260903040724 | 66 | 97 | 1.7 | 1.7 | 0.12 | 0.01 | 0.01 | 99 | 1016.8 |